Shannon, Ireland

1:32 PM GMT on January 17, 2018 (GMT +0000)
Shannon

Weather History for EINN - December, 2011

Change the Weather History Date:

Saturday, December 31, 2011

  Actual Average Record
Temperature  
Mean Temperature 50 °F -  
Max Temperature 53 °F 47 °F 56 °F (2014)
Min Temperature 46 °F 37 °F 24 °F (2001)
Degree Days  
Heating Degree Days 16    
Moisture  
Dew Point 50 °F    
Average Humidity 95    
Maximum Humidity 100    
Minimum Humidity 82    
Precipitation  
Precipitation 0.12 in 0.13 in - ()
Sea Level Pressure  
Sea Level Pressure 29.71 in    
Wind  
Wind Speed 15 mph ()    
Max Wind Speed 25 mph    
Max Gust Speed -    
Visibility 4.3 miles    
Events Rain    
Averages and records for this station are not official NWS values.
T = Trace of Precipitation, MM = Missing Value Source: Averaged Metar Reports

Daily Weather History Graph

Daily Weather History Graph

Search for Another Location

Airport or City:

Trip Planner

Search our weather history database for the weather conditions in past years. The results will help you decide how hot, cold, wet, or windy it might be!

Date:

Astronomy

Dec. 31, 2011 Rise Set
Actual Time 8:47 AM GMT 4:29 PM GMT
Civil Twilight 8:05 AM GMT 5:11 PM GMT
Nautical Twilight 7:21 AM GMT 5:55 PM GMT
Astronomical Twilight 6:39 AM GMT 6:37 PM GMT
Moon 11:27 AM GMT (12/31) No Moon Set
Length of Visible Light 9h 05m
Length of Day
7h 42m
Waxing Crescent, 43% of the Moon is Illuminated
Dec 31
Waxing Crescent
Jan 1
First Quarter
Jan 9
Full
Jan 16
Last Quarter
Jan 23
New

Hourly Weather History & Observations

Time (GMT) Temp. Windchill Dew Point Humidity Pressure Visibility Wind Dir Wind Speed Gust Speed Precip Events Conditions
12:00 AM 51 °F - 51 °F 98% 29.87 in 2 mi WSW 20.1 mph - - Rain Light Drizzle
12:00 AM 51.8 °F - 50.0 °F 94% 29.86 in 1.9 mi WSW 19.6 mph - N/A   Light Drizzle
12:30 AM 51.8 °F - 51.8 °F 100% 29.86 in 1.9 mi WSW 21.9 mph - N/A   Light Drizzle
1:00 AM 51.8 °F - 50.0 °F 94% 29.86 in 3.1 mi WSW 19.6 mph - N/A   Light Drizzle
1:30 AM 51.8 °F - 50.0 °F 94% 29.86 in 3.1 mi SW 16.1 mph - N/A   Light Drizzle
2:00 AM 50.0 °F - 50.0 °F 100% 29.83 in 1.9 mi SW 16.1 mph - N/A   Light Drizzle
2:30 AM 50.0 °F - 50.0 °F 100% 29.83 in 1.9 mi SW 17.3 mph - N/A   Light Drizzle
3:00 AM 51.8 °F - 50.0 °F 94% 29.83 in 5.6 mi SW 18.4 mph - N/A   Light Drizzle
3:30 AM 51.8 °F - 50.0 °F 94% 29.83 in 6.2 mi SW 19.6 mph - N/A   Mostly Cloudy
4:00 AM 51.8 °F - 51.8 °F 100% 29.80 in 6.2 mi SW 18.4 mph - N/A   Mostly Cloudy
4:30 AM 51.8 °F - 51.8 °F 100% 29.80 in 6.2 mi WSW 19.6 mph - N/A   Mostly Cloudy
5:00 AM 51.8 °F - 50.0 °F 94% 29.80 in 3.1 mi SW 17.3 mph - N/A   Light Drizzle
5:30 AM 51.8 °F - 51.8 °F 100% 29.77 in 5.0 mi SW 17.3 mph - N/A   Light Drizzle
6:00 AM 51 °F - 51 °F 99% 29.78 in 2 mi SW 15.7 mph - - Rain Light Drizzle
6:00 AM 51.8 °F - 51.8 °F 100% 29.77 in 1.9 mi SW 15.0 mph - N/A   Light Drizzle
6:30 AM 51.8 °F - 51.8 °F 100% 29.77 in 3.1 mi SW 13.8 mph - N/A   Light Drizzle
7:00 AM 51.8 °F - 51.8 °F 100% 29.77 in 5.0 mi SW 12.7 mph - N/A   Light Drizzle
7:30 AM 51.8 °F - 51.8 °F 100% 29.77 in 2.2 mi SW 9.2 mph - N/A   Light Drizzle
8:00 AM 51.8 °F - 51.8 °F 100% 29.77 in 1.9 mi SW 15.0 mph - N/A   Light Drizzle
8:30 AM 51.8 °F - 51.8 °F 100% 29.74 in 1.7 mi SSW 12.7 mph - N/A   Light Drizzle
9:00 AM 51.8 °F - 51.8 °F 100% 29.74 in 4.3 mi SSW 12.7 mph - N/A   Light Drizzle
9:30 AM 51.8 °F - 51.8 °F 100% 29.74 in 3.1 mi SSW 12.7 mph - N/A   Light Drizzle
10:00 AM 51.8 °F - 51.8 °F 100% 29.74 in 1.6 mi SW 12.7 mph - N/A   Light Drizzle
10:30 AM 53.6 °F - 51.8 °F 94% 29.74 in 1.1 mi SW 15.0 mph - N/A   Light Drizzle
11:00 AM 51.8 °F - 51.8 °F 100% 29.74 in 6.2 mi SW 16.1 mph - N/A   Mostly Cloudy
11:30 AM 51.8 °F - 51.8 °F 100% 29.74 in 1.1 mi SW 13.8 mph - N/A   Light Drizzle
12:00 PM 52 °F - 52 °F 98% 29.73 in 5 mi SW 15.7 mph - - Rain Light Drizzle
12:00 PM 51.8 °F - 51.8 °F 100% 29.71 in 5.0 mi SW 15.0 mph - N/A   Light Drizzle
12:30 PM 53.6 °F - 51.8 °F 94% 29.71 in 3.1 mi SW 18.4 mph - N/A   Light Drizzle
1:00 PM 53.6 °F - 51.8 °F 94% 29.68 in 1.1 mi SW 16.1 mph - N/A   Light Drizzle
1:30 PM 51.8 °F - 51.8 °F 100% 29.65 in 1.2 mi SSW 15.0 mph - N/A   Light Drizzle
2:00 PM 51.8 °F - 51.8 °F 100% 29.65 in 1.2 mi SW 15.0 mph - N/A Rain Light Rain
2:30 PM 51.8 °F - 51.8 °F 100% 29.65 in 4.3 mi SW 17.3 mph - N/A   Light Drizzle
3:00 PM 51.8 °F - 51.8 °F 100% 29.65 in 6.2 mi SW 17.3 mph - N/A   Mostly Cloudy
3:30 PM 53.6 °F - 51.8 °F 94% 29.65 in 5.0 mi WSW 25.3 mph - N/A   Light Drizzle
4:00 PM 51.8 °F - 50.0 °F 94% 29.65 in 6.2 mi SW 18.4 mph - N/A   Mostly Cloudy
4:30 PM 51.8 °F - 50.0 °F 94% 29.65 in 6.2 mi SW 16.1 mph - N/A   Mostly Cloudy
5:00 PM 51.8 °F - 48.2 °F 88% 29.65 in 6.2 mi SW 17.3 mph - N/A   Mostly Cloudy
5:30 PM 50.0 °F - 48.2 °F 94% 29.65 in 6.2 mi SW 16.1 mph - N/A   Mostly Cloudy
6:00 PM 50 °F - 47 °F 86% 29.66 in 12 mi SW 11.2 mph - -   Partly Cloudy
6:00 PM 50.0 °F - 46.4 °F 87% 29.65 in 6.2 mi SW 11.5 mph - N/A   Mostly Cloudy
6:30 PM 50.0 °F - 46.4 °F 87% 29.62 in 6.2 mi South 10.4 mph - N/A   Mostly Cloudy
7:00 PM 50.0 °F - 46.4 °F 87% 29.62 in 6.2 mi South 12.7 mph - N/A   Mostly Cloudy
7:30 PM 50.0 °F - 46.4 °F 87% 29.62 in 6.2 mi South 12.7 mph - N/A   Mostly Cloudy
8:00 PM 50.0 °F - 46.4 °F 87% 29.59 in 6.2 mi South 13.8 mph - N/A   Mostly Cloudy
8:30 PM 50.0 °F - 46.4 °F 87% 29.59 in 6.2 mi WSW 17.3 mph - N/A Rain Light Rain
9:00 PM 46.4 °F 41.9 °F 44.6 °F 93% 29.59 in 6.2 mi SSW 9.2 mph - N/A   Scattered Clouds
9:30 PM 48.2 °F - 46.4 °F 93% 29.59 in 6.2 mi South 8.1 mph - N/A   Mostly Cloudy
10:00 PM 50.0 °F - 44.6 °F 82% 29.56 in - SW 20.7 mph - N/A   Clear
10:30 PM 50.0 °F - 44.6 °F 82% 29.56 in - SW 16.1 mph - N/A   Clear
11:00 PM 50.0 °F - 46.4 °F 87% 29.56 in 6.2 mi SW 17.3 mph - N/A   Scattered Clouds
11:30 PM 50.0 °F - 46.4 °F 87% 29.56 in 6.2 mi SW 17.3 mph - N/A   Mostly Cloudy